Time,TemperatureF,DewpointF,PressureIn,WindDirection,WindDirectionDegrees,WindSpeedMPH,WindSpeedGustMPH,Humidity,HourlyPrecipIn,Conditions,Clouds,dailyrainin,SoftwareType,DateUTC
2013-03-20 00:03:00,10.1,6.5,30.09,NW,325,10.0,20.0,85,0.00,,---,0.00,VWS V13.01,2013-03-20 05:03:00,
2013-03-20 00:08:00,9.9,6.3,30.09,NNW,327,13.0,20.0,85,0.00,,---,0.00,VWS V13.01,2013-03-20 05:08:00,
2013-03-20 00:13:00,9.9,6.3,30.09,North,355,19.0,22.0,85,0.00,,---,0.00,VWS V13.01,2013-03-20 05:13:00,
2013-03-20 00:18:00,9.9,6.0,30.08,WNW,286,5.0,18.0,84,0.00,,---,0.00,VWS V13.01,2013-03-20 05:18:00,
2013-03-20 00:23:00,9.8,5.9,30.08,West,273,9.0,20.0,84,0.00,,---,0.00,VWS V13.01,2013-03-20 05:23:00,
2013-03-20 00:29:00,9.7,5.8,30.08,WNW,300,4.0,20.0,84,0.00,,---,0.00,VWS V13.01,2013-03-20 05:29:00,
2013-03-20 00:34:00,9.6,5.8,30.08,WNW,298,4.0,16.0,84,0.00,,---,0.00,VWS V13.01,2013-03-20 05:34:00,
2013-03-20 00:39:00,9.6,5.5,30.08,WNW,302,6.0,18.0,83,0.00,,---,0.00,VWS V13.01,2013-03-20 05:39:00,
2013-03-20 00:44:00,9.5,5.4,30.08,NW,319,6.0,21.0,83,0.00,,---,0.00,VWS V13.01,2013-03-20 05:44:00,
2013-03-20 00:49:00,9.5,5.4,30.08,NW,315,10.0,17.0,83,0.00,,---,0.00,VWS V13.01,2013-03-20 05:49:00,
2013-03-20 00:54:00,9.4,5.3,30.08,NW,321,9.0,17.0,83,0.00,,---,0.00,VWS V13.01,2013-03-20 05:54:00,
2013-03-20 00:59:00,9.2,5.1,30.09,NW,323,16.0,22.0,83,0.00,,---,0.00,VWS V13.01,2013-03-20 05:59:00,
2013-03-20 01:04:00,9.2,5.1,30.09,NNW,331,3.0,24.0,83,0.00,,---,0.00,VWS V13.01,2013-03-20 06:04:00,
2013-03-20 01:09:00,9.1,5.0,30.09,WNW,295,1.0,24.0,83,0.00,,---,0.00,VWS V13.01,2013-03-20 06:09:00,
2013-03-20 01:14:00,9.0,4.9,30.08,WNW,298,13.0,24.0,83,0.00,,---,0.00,VWS V13.01,2013-03-20 06:14:00,
2013-03-20 01:20:00,8.9,4.5,30.08,NW,323,6.0,14.0,82,0.00,,---,0.00,VWS V13.01,2013-03-20 06:20:00,
2013-03-20 01:25:00,8.8,4.7,30.08,NW,311,11.0,15.0,83,0.00,,---,0.00,VWS V13.01,2013-03-20 06:25:00,
2013-03-20 01:30:00,8.7,4.6,30.08,NW,322,10.0,20.0,83,0.00,,---,0.00,VWS V13.01,2013-03-20 06:30:00,
2013-03-20 01:35:00,8.7,4.6,30.08,WNW,303,13.0,20.0,83,0.00,,---,0.00,VWS V13.01,2013-03-20 06:35:00,
2013-03-20 01:41:00,8.7,4.6,30.08,NNW,333,2.0,20.0,83,0.00,,---,0.00,VWS V13.01,2013-03-20 06:41:00,
2013-03-20 01:46:00,8.6,4.5,30.08,NW,315,11.0,16.0,83,0.00,,---,0.00,VWS V13.01,2013-03-20 06:46:00,
2013-03-20 01:51:00,8.5,4.4,30.08,WNW,293,7.0,18.0,83,0.00,,---,0.00,VWS V13.01,2013-03-20 06:51:00,
2013-03-20 01:56:00,8.4,4.6,30.08,NNW,332,10.0,22.0,84,0.00,,---,0.00,VWS V13.01,2013-03-20 06:56:00,
2013-03-20 02:02:00,8.3,5.0,30.09,WNW,298,7.0,11.0,86,0.00,,---,0.00,VWS V13.01,2013-03-20 07:02:00,
2013-03-20 02:07:00,8.2,4.9,30.09,WNW,295,5.0,14.0,86,0.00,,---,0.00,VWS V13.01,2013-03-20 07:07:00,
2013-03-20 02:12:00,8.1,4.5,30.09,NNW,346,9.0,17.0,85,0.00,,---,0.00,VWS V13.01,2013-03-20 07:12:00,
2013-03-20 02:17:00,8.0,3.9,30.11,SSW,193,5.0,21.0,83,0.00,,---,0.00,VWS V13.01,2013-03-20 07:17:00,
2013-03-20 02:22:00,7.8,3.5,30.11,NNE,17,10.0,21.0,82,0.00,,---,0.00,VWS V13.01,2013-03-20 07:22:00,
2013-03-20 02:27:00,7.6,3.0,30.11,North,360,13.0,21.0,81,0.00,,---,0.00,VWS V13.01,2013-03-20 07:27:00,
2013-03-20 02:32:00,7.5,2.9,30.12,NNW,338,2.0,12.0,81,0.00,,---,0.00,VWS V13.01,2013-03-20 07:32:00,
2013-03-20 02:37:00,7.3,2.7,30.12,WNW,296,9.0,12.0,81,0.00,,---,0.00,VWS V13.01,2013-03-20 07:37:00,
2013-03-20 02:42:00,7.3,2.7,30.12,WNW,298,4.0,13.0,81,0.00,,---,0.00,VWS V13.01,2013-03-20 07:42:00,
2013-03-20 02:48:00,7.2,2.6,30.12,North,350,10.0,13.0,81,0.00,,---,0.00,VWS V13.01,2013-03-20 07:48:00,
2013-03-20 02:53:00,7.2,2.9,30.12,NW,317,13.0,18.0,82,0.00,,---,0.00,VWS V13.01,2013-03-20 07:53:00,
2013-03-20 02:58:00,7.1,2.8,30.12,North,355,10.0,19.0,82,0.00,,---,0.00,VWS V13.01,2013-03-20 07:58:00,
2013-03-20 03:03:00,6.9,2.6,30.12,NW,306,5.0,14.0,82,0.00,,---,0.00,VWS V13.01,2013-03-20 08:03:00,
2013-03-20 03:08:00,6.8,2.7,30.12,WNW,302,4.0,15.0,83,0.00,,---,0.00,VWS V13.01,2013-03-20 08:08:00,
2013-03-20 03:13:00,6.7,2.4,30.12,North,11,12.0,18.0,82,0.00,,---,0.00,VWS V13.01,2013-03-20 08:13:00,
2013-03-20 03:18:00,6.6,2.3,30.12,NW,315,6.0,15.0,82,0.00,,---,0.00,VWS V13.01,2013-03-20 08:18:00,
2013-03-20 03:23:00,6.5,2.2,30.12,North,10,5.0,15.0,82,0.00,,---,0.00,VWS V13.01,2013-03-20 08:23:00,
2013-03-20 03:28:00,6.5,2.2,30.12,NW,323,14.0,20.0,82,0.00,,---,0.00,VWS V13.01,2013-03-20 08:28:00,
2013-03-20 03:33:00,6.4,2.1,30.12,NW,313,7.0,16.0,82,0.00,,---,0.00,VWS V13.01,2013-03-20 08:33:00,
2013-03-20 03:38:00,6.4,2.1,30.12,NW,319,8.0,16.0,82,0.00,,---,0.00,VWS V13.01,2013-03-20 08:38:00,
2013-03-20 03:43:00,6.3,2.0,30.12,NNW,330,10.0,16.0,82,0.00,,---,0.00,VWS V13.01,2013-03-20 08:43:00,
2013-03-20 03:48:00,6.3,2.0,30.12,NW,326,7.0,11.0,82,0.00,,---,0.00,VWS V13.01,2013-03-20 08:48:00,
2013-03-20 03:53:00,6.3,2.0,30.12,NNE,12,9.0,16.0,82,0.00,,---,0.00,VWS V13.01,2013-03-20 08:53:00,
2013-03-20 03:59:00,6.2,1.9,30.12,NW,325,9.0,17.0,82,0.00,,---,0.00,VWS V13.01,2013-03-20 08:59:00,
2013-03-20 04:03:00,6.2,1.9,30.12,WNW,295,5.0,12.0,82,0.00,,---,0.00,VWS V13.01,2013-03-20 09:03:00,
2013-03-20 04:08:00,6.1,1.8,30.12,NW,319,12.0,13.0,82,0.00,,---,0.00,VWS V13.01,2013-03-20 09:08:00,
2013-03-20 04:14:00,6.1,1.8,30.12,NW,314,6.0,15.0,82,0.00,,---,0.00,VWS V13.01,2013-03-20 09:14:00,
2013-03-20 04:18:00,6.2,1.6,30.13,North,5,1.0,18.0,81,0.00,,---,0.00,VWS V13.01,2013-03-20 09:18:00,
2013-03-20 04:24:00,6.2,1.6,30.13,NW,310,9.0,18.0,81,0.00,,---,0.00,VWS V13.01,2013-03-20 09:24:00,
2013-03-20 04:29:00,6.1,1.5,30.13,NW,308,9.0,18.0,81,0.00,,---,0.00,VWS V13.01,2013-03-20 09:29:00,
2013-03-20 04:34:00,6.1,1.5,30.13,NNW,343,8.0,16.0,81,0.00,,---,0.00,VWS V13.01,2013-03-20 09:34:00,
2013-03-20 04:39:00,6.1,1.5,30.13,NW,319,11.0,16.0,81,0.00,,---,0.00,VWS V13.01,2013-03-20 09:39:00,
2013-03-20 04:44:00,6.0,1.4,30.14,NNW,336,14.0,20.0,81,0.00,,---,0.00,VWS V13.01,2013-03-20 09:44:00,
2013-03-20 04:49:00,6.0,1.4,30.14,NW,309,7.0,15.0,81,0.00,,---,0.00,VWS V13.01,2013-03-20 09:49:00,
2013-03-20 04:54:00,6.0,1.4,30.14,North,355,10.0,15.0,81,0.00,,---,0.00,VWS V13.01,2013-03-20 09:54:00,
2013-03-20 04:59:00,5.9,1.3,30.14,NW,325,10.0,18.0,81,0.00,,---,0.00,VWS V13.01,2013-03-20 09:59:00,
2013-03-20 05:05:00,5.8,1.2,30.14,NNW,327,4.0,14.0,81,0.00,,---,0.00,VWS V13.01,2013-03-20 10:05:00,
2013-03-20 05:10:00,5.8,1.2,30.14,NW,312,10.0,18.0,81,0.00,,---,0.00,VWS V13.01,2013-03-20 10:10:00,
2013-03-20 05:15:00,5.7,1.1,30.16,WNW,295,5.0,18.0,81,0.00,,---,0.00,VWS V13.01,2013-03-20 10:15:00,
2013-03-20 05:20:00,5.6,1.3,30.16,WNW,295,10.0,19.0,82,0.00,,---,0.00,VWS V13.01,2013-03-20 10:20:00,
2013-03-20 05:25:00,5.5,1.2,30.16,North,11,2.0,19.0,82,0.00,,---,0.00,VWS V13.01,2013-03-20 10:25:00,
2013-03-20 05:31:00,5.4,1.1,30.16,NW,319,3.0,6.0,82,0.00,,---,0.00,VWS V13.01,2013-03-20 10:31:00,
2013-03-20 05:36:00,5.3,1.0,30.16,NNW,338,3.0,10.0,82,0.00,,---,0.00,VWS V13.01,2013-03-20 10:36:00,
2013-03-20 05:41:00,5.3,1.3,30.16,WNW,284,4.0,14.0,83,0.00,,---,0.00,VWS V13.01,2013-03-20 10:41:00,
2013-03-20 05:46:00,5.1,0.8,30.17,NNW,347,6.0,6.0,82,0.00,,---,0.00,VWS V13.01,2013-03-20 10:46:00,
2013-03-20 05:51:00,5.1,1.1,30.17,North,349,5.0,16.0,83,0.00,,---,0.00,VWS V13.01,2013-03-20 10:51:00,
2013-03-20 05:57:00,5.1,1.1,30.17,NNE,13,7.0,17.0,83,0.00,,---,0.00,VWS V13.01,2013-03-20 10:57:00,
2013-03-20 06:02:00,5.2,1.2,30.17,NW,316,14.0,14.0,83,0.00,,---,0.00,VWS V13.01,2013-03-20 11:02:00,
2013-03-20 06:07:00,5.1,1.1,30.17,NNW,335,6.0,14.0,83,0.00,,---,0.00,VWS V13.01,2013-03-20 11:07:00,
2013-03-20 06:13:00,5.1,1.3,30.17,NNW,334,6.0,14.0,84,0.00,,---,0.00,VWS V13.01,2013-03-20 11:13:00,
2013-03-20 06:18:00,5.0,1.2,30.19,NW,319,6.0,11.0,84,0.00,,---,0.00,VWS V13.01,2013-03-20 11:18:00,
2013-03-20 06:23:00,5.0,1.2,30.19,WNW,298,4.0,11.0,84,0.00,,---,0.00,VWS V13.01,2013-03-20 11:23:00,
2013-03-20 06:28:00,5.0,3.9,30.19,NNW,348,6.0,12.0,95,0.00,,---,0.00,VWS V13.01,2013-03-20 11:28:00,
2013-03-20 06:33:00,5.1,1.3,30.19,NNW,329,8.0,13.0,84,0.00,,---,0.00,VWS V13.01,2013-03-20 11:33:00,
2013-03-20 06:38:00,5.1,1.3,30.19,NW,326,7.0,13.0,84,0.00,,---,0.00,VWS V13.01,2013-03-20 11:38:00,
2013-03-20 06:43:00,5.1,1.3,30.19,NNW,330,13.0,17.0,84,0.00,,---,0.00,VWS V13.01,2013-03-20 11:43:00,
2013-03-20 06:48:00,5.2,1.4,30.20,West,276,3.0,11.0,84,0.00,,---,0.00,VWS V13.01,2013-03-20 11:48:00,
2013-03-20 06:53:00,5.2,1.4,30.20,NW,321,7.0,11.0,84,0.00,,---,0.00,VWS V13.01,2013-03-20 11:53:00,
2013-03-20 06:58:00,5.2,1.4,30.20,NNW,329,6.0,14.0,84,0.00,,---,0.00,VWS V13.01,2013-03-20 11:58:00,
2013-03-20 07:03:00,5.1,1.3,30.21,NW,324,12.0,14.0,84,0.00,,---,0.00,VWS V13.01,2013-03-20 12:03:00,
2013-03-20 07:08:00,5.0,1.0,30.21,NNW,342,9.0,14.0,83,0.00,,---,0.00,VWS V13.01,2013-03-20 12:08:00,
2013-03-20 07:14:00,5.0,1.0,30.21,North,5,11.0,14.0,83,0.00,,---,0.00,VWS V13.01,2013-03-20 12:14:00,
2013-03-20 07:19:00,4.9,0.9,30.21,North,355,2.0,9.0,83,0.00,,---,0.00,VWS V13.01,2013-03-20 12:19:00,
2013-03-20 07:24:00,4.9,0.9,30.21,NW,309,4.0,10.0,83,0.00,,---,0.00,VWS V13.01,2013-03-20 12:24:00,
2013-03-20 07:29:00,4.9,0.9,30.21,NNW,334,4.0,14.0,83,0.00,,---,0.00,VWS V13.01,2013-03-20 12:29:00,
2013-03-20 07:34:00,4.9,0.9,30.21,WNW,296,2.0,12.0,83,0.00,,---,0.00,VWS V13.01,2013-03-20 12:34:00,
2013-03-20 07:39:00,4.8,0.8,30.21,NW,323,2.0,17.0,83,0.00,,---,0.00,VWS V13.01,2013-03-20 12:39:00,
2013-03-20 07:44:00,4.9,0.9,30.21,WNW,296,4.0,17.0,83,0.00,,---,0.00,VWS V13.01,2013-03-20 12:44:00,
2013-03-20 07:49:00,4.9,0.9,30.21,North,5,3.0,13.0,83,0.00,,---,0.00,VWS V13.01,2013-03-20 12:49:00,
2013-03-20 07:55:00,5.0,1.0,30.21,NNW,335,13.0,14.0,83,0.00,,---,0.00,VWS V13.01,2013-03-20 12:55:00,
2013-03-20 08:00:00,5.1,1.3,30.21,WNW,293,2.0,14.0,84,0.00,,---,0.00,VWS V13.01,2013-03-20 13:00:00,
2013-03-20 08:05:00,5.1,1.3,30.21,NNW,348,6.0,13.0,84,0.00,,---,0.00,VWS V13.01,2013-03-20 13:05:00,
2013-03-20 08:10:00,5.2,1.4,30.21,NNW,332,5.0,13.0,84,0.00,,---,0.00,VWS V13.01,2013-03-20 13:10:00,
2013-03-20 08:15:00,5.3,1.3,30.21,WNW,294,9.0,10.0,83,0.00,,---,0.00,VWS V13.01,2013-03-20 13:15:00,
2013-03-20 08:20:00,5.3,1.3,30.21,WNW,294,9.0,16.0,83,0.00,,---,0.00,VWS V13.01,2013-03-20 13:20:00,
2013-03-20 08:25:00,5.3,1.0,30.21,NNW,342,2.0,19.0,82,0.00,,---,0.00,VWS V13.01,2013-03-20 13:25:00,
2013-03-20 08:31:00,5.3,1.0,30.21,NNW,340,15.0,17.0,82,0.00,,---,0.00,VWS V13.01,2013-03-20 13:31:00,
2013-03-20 08:36:00,5.3,1.0,30.21,West,278,11.0,17.0,82,0.00,,---,0.00,VWS V13.01,2013-03-20 13:36:00,
2013-03-20 08:42:00,5.3,0.8,30.21,WNW,298,12.0,17.0,81,0.00,,---,0.00,VWS V13.01,2013-03-20 13:42:00,
2013-03-20 08:46:00,5.3,0.8,30.22,NNW,341,10.0,13.0,81,0.00,,---,0.00,VWS V13.01,2013-03-20 13:46:00,
2013-03-20 08:52:00,5.6,1.3,30.22,WNW,283,9.0,18.0,82,0.00,,---,0.00,VWS V13.01,2013-03-20 13:52:00,
2013-03-20 08:57:00,5.7,1.1,30.22,NNW,330,7.0,18.0,81,0.00,,---,0.00,VWS V13.01,2013-03-20 13:57:00,
2013-03-20 09:02:00,5.8,1.2,30.21,NW,323,16.0,16.0,81,0.00,,---,0.00,VWS V13.01,2013-03-20 14:02:00,
2013-03-20 09:07:00,6.0,1.4,30.21,NNW,330,5.0,16.0,81,0.00,,---,0.00,VWS V13.01,2013-03-20 14:07:00,
2013-03-20 09:12:00,6.2,1.6,30.21,NNW,343,2.0,16.0,81,0.00,,---,0.00,VWS V13.01,2013-03-20 14:12:00,
2013-03-20 09:17:00,6.4,1.8,30.21,WNW,290,6.0,11.0,81,0.00,,---,0.00,VWS V13.01,2013-03-20 14:17:00,
2013-03-20 09:23:00,6.3,1.5,30.21,West,259,11.0,14.0,80,0.00,,---,0.00,VWS V13.01,2013-03-20 14:23:00,
2013-03-20 09:28:00,6.2,1.4,30.21,NNW,331,5.0,17.0,80,0.00,,---,0.00,VWS V13.01,2013-03-20 14:28:00,
2013-03-20 09:33:00,6.2,1.4,30.22,WNW,289,5.0,14.0,80,0.00,,---,0.00,VWS V13.01,2013-03-20 14:33:00,
2013-03-20 09:38:00,6.3,1.5,30.22,North,349,9.0,17.0,80,0.00,,---,0.00,VWS V13.01,2013-03-20 14:38:00,
2013-03-20 09:43:00,6.4,1.3,30.22,NW,319,7.0,17.0,79,0.00,,---,0.00,VWS V13.01,2013-03-20 14:43:00,
2013-03-20 09:48:00,6.3,1.2,30.22,NNW,334,2.0,16.0,79,0.00,,---,0.00,VWS V13.01,2013-03-20 14:48:00,
2013-03-20 09:53:00,6.3,1.2,30.22,NW,314,5.0,17.0,79,0.00,,---,0.00,VWS V13.01,2013-03-20 14:53:00,
2013-03-20 09:58:00,6.4,1.3,30.22,WNW,303,7.0,17.0,79,0.00,,---,0.00,VWS V13.01,2013-03-20 14:58:00,
2013-03-20 10:04:00,6.5,1.4,30.22,North,355,7.0,15.0,79,0.00,,---,0.00,VWS V13.01,2013-03-20 15:04:00,
2013-03-20 10:09:00,6.7,1.3,30.22,NNW,336,11.0,16.0,78,0.00,,---,0.00,VWS V13.01,2013-03-20 15:09:00,
2013-03-20 10:14:00,7.0,1.6,30.22,North,360,9.0,16.0,78,0.00,,---,0.00,VWS V13.01,2013-03-20 15:14:00,
2013-03-20 10:19:00,7.1,1.7,30.23,NNW,343,5.0,16.0,78,0.00,,---,0.00,VWS V13.01,2013-03-20 15:19:00,
2013-03-20 10:24:00,7.2,1.8,30.23,NNW,331,7.0,16.0,78,0.00,,---,0.00,VWS V13.01,2013-03-20 15:24:00,
2013-03-20 10:30:00,7.2,1.5,30.23,NW,315,3.0,16.0,77,0.00,,---,0.00,VWS V13.01,2013-03-20 15:30:00,
2013-03-20 10:35:00,7.5,1.8,30.23,NW,311,9.0,16.0,77,0.00,,---,0.00,VWS V13.01,2013-03-20 15:35:00,
2013-03-20 10:40:00,7.8,2.1,30.23,North,349,7.0,17.0,77,0.00,,---,0.00,VWS V13.01,2013-03-20 15:40:00,
2013-03-20 10:45:00,7.5,1.8,30.23,NNW,343,8.0,18.0,77,0.00,,---,0.00,VWS V13.01,2013-03-20 15:45:00,
2013-03-20 10:50:00,7.5,1.5,30.23,WNW,293,5.0,19.0,76,0.00,,---,0.00,VWS V13.01,2013-03-20 15:50:00,
2013-03-20 10:55:00,8.1,2.1,30.23,NNW,330,2.0,19.0,76,0.00,,---,0.00,VWS V13.01,2013-03-20 15:55:00,
2013-03-20 11:00:00,8.7,2.7,30.21,NW,326,7.0,19.0,76,0.00,,---,0.00,VWS V13.01,2013-03-20 16:00:00,
2013-03-20 11:05:00,8.9,2.6,30.21,WNW,298,10.0,15.0,75,0.00,,---,0.00,VWS V13.01,2013-03-20 16:05:00,
2013-03-20 11:10:00,9.3,3.0,30.21,North,355,4.0,15.0,75,0.00,,---,0.00,VWS V13.01,2013-03-20 16:10:00,
2013-03-20 11:15:00,9.6,2.7,30.22,NW,311,9.0,14.0,73,0.00,,---,0.00,VWS V13.01,2013-03-20 16:15:00,
2013-03-20 11:21:00,9.1,2.5,30.22,WNW,303,10.0,16.0,74,0.00,,---,0.00,VWS V13.01,2013-03-20 16:21:00,
2013-03-20 11:26:00,9.5,2.9,30.22,North,5,9.0,16.0,74,0.00,,---,0.00,VWS V13.01,2013-03-20 16:26:00,
2013-03-20 11:31:00,9.4,2.8,30.22,WNW,300,14.0,18.0,74,0.00,,---,0.00,VWS V13.01,2013-03-20 16:31:00,
2013-03-20 11:36:00,8.9,2.3,30.22,NNE,17,12.0,18.0,74,0.00,,---,0.00,VWS V13.01,2013-03-20 16:36:00,
2013-03-20 11:42:00,9.4,2.8,30.22,NW,311,9.0,19.0,74,0.00,,---,0.00,VWS V13.01,2013-03-20 16:42:00,
2013-03-20 11:47:00,10.3,3.7,30.21,NNW,328,3.0,11.0,74,0.00,,---,0.00,VWS V13.01,2013-03-20 16:47:00,
2013-03-20 11:52:00,10.6,3.7,30.21,North,355,6.0,14.0,73,0.00,,---,0.00,VWS V13.01,2013-03-20 16:52:00,
2013-03-20 11:57:00,10.5,3.3,30.21,NNW,330,8.0,17.0,72,0.00,,---,0.00,VWS V13.01,2013-03-20 16:57:00,
2013-03-20 12:02:00,10.1,2.9,30.22,North,355,7.0,15.0,72,0.00,,---,0.00,VWS V13.01,2013-03-20 17:02:00,
2013-03-20 12:08:00,10.2,3.0,30.22,NNW,348,12.0,17.0,72,0.00,,---,0.00,VWS V13.01,2013-03-20 17:08:00,
2013-03-20 12:13:00,10.2,3.0,30.22,North,355,14.0,18.0,72,0.00,,---,0.00,VWS V13.01,2013-03-20 17:13:00,
2013-03-20 12:18:00,10.3,2.8,30.24,NNW,348,10.0,17.0,71,0.00,,---,0.00,VWS V13.01,2013-03-20 17:18:00,
2013-03-20 12:23:00,10.7,3.5,30.24,NW,310,6.0,17.0,72,0.00,,---,0.00,VWS V13.01,2013-03-20 17:23:00,
2013-03-20 12:28:00,11.3,4.6,30.24,NW,309,10.0,17.0,74,0.00,,---,0.00,VWS V13.01,2013-03-20 17:28:00,
2013-03-20 12:33:00,11.3,3.7,30.23,West,267,1.0,17.0,71,0.00,,---,0.00,VWS V13.01,2013-03-20 17:33:00,
2013-03-20 12:38:00,11.1,3.8,30.23,NW,325,7.0,19.0,72,0.00,,---,0.00,VWS V13.01,2013-03-20 17:38:00,
2013-03-20 12:43:00,10.6,3.4,30.23,WNW,295,11.0,19.0,72,0.00,,---,0.00,VWS V13.01,2013-03-20 17:43:00,
2013-03-20 12:48:00,10.9,3.7,30.23,NNW,344,8.0,15.0,72,0.00,,---,0.00,VWS V13.01,2013-03-20 17:48:00,
2013-03-20 12:53:00,11.5,3.9,30.23,NW,318,7.0,16.0,71,0.00,,---,0.00,VWS V13.01,2013-03-20 17:53:00,
2013-03-20 12:58:00,11.6,4.0,30.23,NW,312,3.0,16.0,71,0.00,,---,0.00,VWS V13.01,2013-03-20 17:58:00,
2013-03-20 13:03:00,11.3,4.1,30.23,NNW,339,7.0,11.0,72,0.00,,---,0.00,VWS V13.01,2013-03-20 18:03:00,
2013-03-20 13:08:00,12.0,5.0,30.23,North,10,11.0,16.0,73,0.00,,---,0.00,VWS V13.01,2013-03-20 18:08:00,
2013-03-20 13:13:00,12.0,4.7,30.23,WNW,298,4.0,16.0,72,0.00,,---,0.00,VWS V13.01,2013-03-20 18:13:00,
2013-03-20 13:18:00,11.8,4.5,30.23,NW,315,3.0,16.0,72,0.00,,---,0.00,VWS V13.01,2013-03-20 18:18:00,
2013-03-20 13:23:00,11.7,4.4,30.23,NW,309,5.0,19.0,72,0.00,,---,0.00,VWS V13.01,2013-03-20 18:23:00,
2013-03-20 13:28:00,12.1,4.8,30.23,NNW,338,4.0,19.0,72,0.00,,---,0.00,VWS V13.01,2013-03-20 18:28:00,
2013-03-20 13:33:00,12.6,4.7,30.23,NW,309,8.0,16.0,70,0.00,,---,0.00,VWS V13.01,2013-03-20 18:33:00,
2013-03-20 13:38:00,13.4,5.1,30.23,WNW,294,4.0,16.0,69,0.00,,---,0.00,VWS V13.01,2013-03-20 18:38:00,
2013-03-20 13:43:00,12.9,4.3,30.23,NW,314,12.0,16.0,68,0.00,,---,0.00,VWS V13.01,2013-03-20 18:43:00,
2013-03-20 13:49:00,12.3,4.4,30.23,NNW,347,7.0,18.0,70,0.00,,---,0.00,VWS V13.01,2013-03-20 18:49:00,
2013-03-20 13:54:00,12.2,4.3,30.23,NNW,343,7.0,18.0,70,0.00,,---,0.00,VWS V13.01,2013-03-20 18:54:00,
2013-03-20 13:59:00,12.2,4.6,30.23,North,360,6.0,18.0,71,0.00,,---,0.00,VWS V13.01,2013-03-20 18:59:00,
2013-03-20 14:04:00,12.5,4.6,30.23,NW,306,6.0,18.0,70,0.00,,---,0.00,VWS V13.01,2013-03-20 19:04:00,
2013-03-20 14:09:00,12.9,5.3,30.23,NW,314,9.0,18.0,71,0.00,,---,0.00,VWS V13.01,2013-03-20 19:09:00,
2013-03-20 14:14:00,12.6,5.0,30.22,North,349,6.0,18.0,71,0.00,,---,0.00,VWS V13.01,2013-03-20 19:14:00,
2013-03-20 14:19:00,12.8,4.6,30.22,NNW,345,6.0,18.0,69,0.00,,---,0.00,VWS V13.01,2013-03-20 19:19:00,
2013-03-20 14:24:00,13.3,4.7,30.22,North,5,19.0,20.0,68,0.00,,---,0.00,VWS V13.01,2013-03-20 19:24:00,
2013-03-20 14:29:00,13.1,4.8,30.23,North,10,11.0,20.0,69,0.00,,---,0.00,VWS V13.01,2013-03-20 19:29:00,
2013-03-20 14:34:00,13.4,5.1,30.23,WNW,284,2.0,16.0,69,0.00,,---,0.00,VWS V13.01,2013-03-20 19:34:00,
2013-03-20 14:39:00,14.1,5.2,30.23,NW,321,4.0,16.0,67,0.00,,---,0.00,VWS V13.01,2013-03-20 19:39:00,
2013-03-20 14:44:00,13.9,5.0,30.23,NW,309,4.0,16.0,67,0.00,,---,0.00,VWS V13.01,2013-03-20 19:44:00,
2013-03-20 14:49:00,13.6,4.4,30.23,NNW,336,11.0,18.0,66,0.00,,---,0.00,VWS V13.01,2013-03-20 19:49:00,
2013-03-20 14:54:00,13.6,4.7,30.23,WNW,298,2.0,18.0,67,0.00,,---,0.00,VWS V13.01,2013-03-20 19:54:00,
2013-03-20 15:00:00,13.6,5.0,30.23,NNW,338,13.0,18.0,68,0.00,,---,0.00,VWS V13.01,2013-03-20 20:00:00,
2013-03-20 15:05:00,13.7,5.1,30.23,North,360,2.0,17.0,68,0.00,,---,0.00,VWS V13.01,2013-03-20 20:05:00,
2013-03-20 15:10:00,13.6,5.3,30.23,NNW,330,5.0,17.0,69,0.00,,---,0.00,VWS V13.01,2013-03-20 20:10:00,
2013-03-20 15:15:00,13.6,5.0,30.23,NNW,336,8.0,9.0,68,0.00,,---,0.00,VWS V13.01,2013-03-20 20:15:00,
2013-03-20 15:20:00,13.9,5.6,30.23,North,360,6.0,15.0,69,0.00,,---,0.00,VWS V13.01,2013-03-20 20:20:00,
2013-03-20 15:26:00,14.2,5.6,30.23,NW,322,11.0,15.0,68,0.00,,---,0.00,VWS V13.01,2013-03-20 20:26:00,
2013-03-20 15:31:00,13.9,5.6,30.24,WNW,299,4.0,4.0,69,0.00,,---,0.00,VWS V13.01,2013-03-20 20:31:00,
2013-03-20 15:35:00,14.0,5.4,30.24,WNW,299,2.0,14.0,68,0.00,,---,0.00,VWS V13.01,2013-03-20 20:35:00,
2013-03-20 15:41:00,14.0,5.4,30.24,NW,321,12.0,14.0,68,0.00,,---,0.00,VWS V13.01,2013-03-20 20:41:00,
2013-03-20 15:46:00,13.4,5.1,30.25,NW,316,5.0,12.0,69,0.00,,---,0.00,VWS V13.01,2013-03-20 20:46:00,
2013-03-20 15:52:00,13.7,5.8,30.25,WNW,293,4.0,13.0,70,0.00,,---,0.00,VWS V13.01,2013-03-20 20:52:00,
2013-03-20 15:57:00,13.7,6.1,30.25,NNW,344,2.0,16.0,71,0.00,,---,0.00,VWS V13.01,2013-03-20 20:57:00,
2013-03-20 16:02:00,13.7,5.8,30.25,NNW,345,4.0,13.0,70,0.00,,---,0.00,VWS V13.01,2013-03-20 21:02:00,
2013-03-20 16:07:00,13.9,5.9,30.25,NNW,327,3.0,13.0,70,0.00,,---,0.00,VWS V13.01,2013-03-20 21:07:00,
2013-03-20 16:12:00,14.1,6.1,30.25,WNW,294,10.0,13.0,70,0.00,,---,0.00,VWS V13.01,2013-03-20 21:12:00,
2013-03-20 16:17:00,14.3,6.3,30.26,West,281,6.0,9.0,70,0.00,,---,0.00,VWS V13.01,2013-03-20 21:17:00,
2013-03-20 16:22:00,14.2,5.9,30.26,NW,324,6.0,16.0,69,0.00,,---,0.00,VWS V13.01,2013-03-20 21:22:00,
2013-03-20 16:27:00,14.3,6.0,30.26,NW,318,9.0,16.0,69,0.00,,---,0.00,VWS V13.01,2013-03-20 21:27:00,
2013-03-20 16:32:00,14.2,6.2,30.27,NW,315,5.0,17.0,70,0.00,,---,0.00,VWS V13.01,2013-03-20 21:32:00,
2013-03-20 16:37:00,14.0,6.3,30.27,NW,317,14.0,17.0,71,0.00,,---,0.00,VWS V13.01,2013-03-20 21:37:00,
2013-03-20 16:42:00,14.0,6.7,30.27,West,280,5.0,17.0,72,0.00,,---,0.00,VWS V13.01,2013-03-20 21:42:00,
2013-03-20 16:47:00,14.4,6.7,30.27,NNW,342,2.0,13.0,71,0.00,,---,0.00,VWS V13.01,2013-03-20 21:47:00,
2013-03-20 16:52:00,14.3,6.6,30.27,NNW,334,3.0,14.0,71,0.00,,---,0.00,VWS V13.01,2013-03-20 21:52:00,
2013-03-20 16:57:00,13.8,6.5,30.27,NW,311,8.0,14.0,72,0.00,,---,0.00,VWS V13.01,2013-03-20 21:57:00,
2013-03-20 17:02:00,13.6,6.6,30.28,North,360,6.0,11.0,73,0.00,,---,0.00,VWS V13.01,2013-03-20 22:02:00,
2013-03-20 17:07:00,13.7,6.7,30.28,NW,308,5.0,13.0,73,0.00,,---,0.00,VWS V13.01,2013-03-20 22:07:00,
2013-03-20 17:12:00,13.5,6.5,30.28,NNW,341,10.0,16.0,73,0.00,,---,0.00,VWS V13.01,2013-03-20 22:12:00,
2013-03-20 17:17:00,13.6,6.6,30.30,North,350,11.0,17.0,73,0.00,,---,0.00,VWS V13.01,2013-03-20 22:17:00,
2013-03-20 17:22:00,13.8,6.8,30.30,NNW,340,10.0,17.0,73,0.00,,---,0.00,VWS V13.01,2013-03-20 22:22:00,
2013-03-20 17:28:00,13.7,6.4,30.30,NW,308,6.0,17.0,72,0.00,,---,0.00,VWS V13.01,2013-03-20 22:28:00,
2013-03-20 17:33:00,13.5,6.5,30.31,WNW,297,11.0,14.0,73,0.00,,---,0.00,VWS V13.01,2013-03-20 22:33:00,
2013-03-20 17:38:00,13.4,6.7,30.31,NNW,344,6.0,14.0,74,0.00,,---,0.00,VWS V13.01,2013-03-20 22:38:00,
2013-03-20 17:43:00,13.3,6.6,30.31,NW,305,10.0,14.0,74,0.00,,---,0.00,VWS V13.01,2013-03-20 22:43:00,
2013-03-20 17:48:00,13.2,6.5,30.31,NNW,337,4.0,14.0,74,0.00,,---,0.00,VWS V13.01,2013-03-20 22:48:00,
2013-03-20 17:53:00,13.1,6.4,30.31,NNW,347,7.0,15.0,74,0.00,,---,0.00,VWS V13.01,2013-03-20 22:53:00,
2013-03-20 17:58:00,13.1,6.4,30.31,NNW,347,2.0,15.0,74,0.00,,---,0.00,VWS V13.01,2013-03-20 22:58:00,
2013-03-20 18:03:00,13.1,6.4,30.31,WNW,285,3.0,13.0,74,0.00,,---,0.00,VWS V13.01,2013-03-20 23:03:00,
2013-03-20 18:08:00,13.0,6.6,30.31,NW,313,10.0,13.0,75,0.00,,---,0.00,VWS V13.01,2013-03-20 23:08:00,
2013-03-20 18:13:00,13.0,6.6,30.31,NNW,343,4.0,13.0,75,0.00,,---,0.00,VWS V13.01,2013-03-20 23:13:00,
2013-03-20 18:19:00,13.0,6.6,30.31,NW,306,1.0,11.0,75,0.00,,---,0.00,VWS V13.01,2013-03-20 23:19:00,
2013-03-20 18:24:00,12.9,6.5,30.31,North,360,4.0,11.0,75,0.00,,---,0.00,VWS V13.01,2013-03-20 23:24:00,
2013-03-20 18:45:00,12.6,6.2,30.31,WNW,303,2.0,13.0,75,0.00,,---,0.00,VWS V13.01,2013-03-20 23:45:00,
2013-03-20 18:56:00,12.5,6.1,30.31,NW,325,5.0,12.0,75,0.00,,---,0.00,VWS V13.01,2013-03-20 23:56:00,
2013-03-20 19:02:00,12.5,6.1,30.32,NW,317,11.0,12.0,75,0.00,,---,0.00,VWS V13.01,2013-03-21 00:02:00,
2013-03-20 19:07:00,12.3,5.9,30.32,NNW,333,2.0,12.0,75,0.00,,---,0.00,VWS V13.01,2013-03-21 00:07:00,
2013-03-20 19:12:00,12.2,5.8,30.32,NW,322,5.0,12.0,75,0.00,,---,0.00,VWS V13.01,2013-03-21 00:12:00,
2013-03-20 19:18:00,12.2,5.8,30.34,North,349,7.0,14.0,75,0.00,,---,0.00,VWS V13.01,2013-03-21 00:18:00,
2013-03-20 19:23:00,12.1,5.7,30.34,WNW,294,2.0,14.0,75,0.00,,---,0.00,VWS V13.01,2013-03-21 00:23:00,
2013-03-20 19:28:00,12.1,5.7,30.34,North,5,4.0,15.0,75,0.00,,---,0.00,VWS V13.01,2013-03-21 00:28:00,
2013-03-20 19:33:00,12.1,5.7,30.34,NNW,340,5.0,15.0,75,0.00,,---,0.00,VWS V13.01,2013-03-21 00:33:00,
2013-03-20 19:38:00,12.1,5.7,30.34,North,5,7.0,16.0,75,0.00,,---,0.00,VWS V13.01,2013-03-21 00:38:00,
2013-03-20 19:44:00,12.0,5.9,30.34,NW,308,3.0,16.0,76,0.00,,---,0.00,VWS V13.01,2013-03-21 00:44:00,
2013-03-20 19:49:00,11.9,5.8,30.34,NW,309,7.0,13.0,76,0.00,,---,0.00,VWS V13.01,2013-03-21 00:49:00,
2013-03-20 19:54:00,11.8,5.7,30.34,NW,322,4.0,14.0,76,0.00,,---,0.00,VWS V13.01,2013-03-21 00:54:00,
2013-03-20 19:59:00,11.8,5.7,30.34,NNW,341,2.0,14.0,76,0.00,,---,0.00,VWS V13.01,2013-03-21 00:59:00,
2013-03-20 20:04:00,11.7,5.9,30.34,NW,317,3.0,12.0,77,0.00,,---,0.00,VWS V13.01,2013-03-21 01:04:00,
2013-03-20 20:09:00,11.7,5.9,30.34,NW,312,3.0,12.0,77,0.00,,---,0.00,VWS V13.01,2013-03-21 01:09:00,
2013-03-20 20:14:00,11.7,5.9,30.33,NW,321,5.0,12.0,77,0.00,,---,0.00,VWS V13.01,2013-03-21 01:14:00,
2013-03-20 20:19:00,11.7,5.9,30.33,North,360,4.0,12.0,77,0.00,,---,0.00,VWS V13.01,2013-03-21 01:19:00,
2013-03-20 20:24:00,11.6,5.8,30.33,NW,309,3.0,12.0,77,0.00,,---,0.00,VWS V13.01,2013-03-21 01:24:00,
2013-03-20 20:30:00,11.6,5.8,30.33,NNE,29,7.0,12.0,77,0.00,,---,0.00,VWS V13.01,2013-03-21 01:30:00,
2013-03-20 20:35:00,11.6,5.8,30.33,North,360,6.0,10.0,77,0.00,,---,0.00,VWS V13.01,2013-03-21 01:35:00,
2013-03-20 20:40:00,11.5,5.7,30.33,NNW,337,6.0,12.0,77,0.00,,---,0.00,VWS V13.01,2013-03-21 01:40:00,
2013-03-20 20:45:00,11.5,5.7,30.33,North,351,4.0,4.0,77,0.00,,---,0.00,VWS V13.01,2013-03-21 01:45:00,
2013-03-20 20:50:00,11.4,5.6,30.33,NW,314,2.0,9.0,77,0.00,,---,0.00,VWS V13.01,2013-03-21 01:50:00,
2013-03-20 20:55:00,11.4,5.9,30.33,NNW,330,5.0,10.0,78,0.00,,---,0.00,VWS V13.01,2013-03-21 01:55:00,
2013-03-20 21:00:00,11.4,5.9,30.35,NW,304,5.0,6.0,78,0.00,,---,0.00,VWS V13.01,2013-03-21 02:00:00,
2013-03-20 21:06:00,11.3,5.8,30.35,North,355,10.0,14.0,78,0.00,,---,0.00,VWS V13.01,2013-03-21 02:06:00,
2013-03-20 21:12:00,11.3,5.8,30.35,NNW,328,5.0,14.0,78,0.00,,---,0.00,VWS V13.01,2013-03-21 02:12:00,
2013-03-20 21:17:00,11.3,5.8,30.33,NW,306,7.0,9.0,78,0.00,,---,0.00,VWS V13.01,2013-03-21 02:17:00,
2013-03-20 21:22:00,11.2,5.7,30.33,NW,325,6.0,11.0,78,0.00,,---,0.00,VWS V13.01,2013-03-21 02:22:00,
2013-03-20 21:27:00,11.2,6.0,30.33,NW,326,4.0,11.0,79,0.00,,---,0.00,VWS V13.01,2013-03-21 02:27:00,
2013-03-20 21:32:00,11.2,6.0,30.33,NNW,335,4.0,11.0,79,0.00,,---,0.00,VWS V13.01,2013-03-21 02:32:00,
2013-03-20 21:38:00,11.2,6.0,30.33,NNW,329,2.0,11.0,79,0.00,,---,0.00,VWS V13.01,2013-03-21 02:38:00,
2013-03-20 21:43:00,11.2,6.0,30.33,NNE,22,6.0,11.0,79,0.00,,---,0.00,VWS V13.01,2013-03-21 02:43:00,
2013-03-20 21:48:00,11.2,6.0,30.34,NW,321,2.0,5.0,79,0.00,,---,0.00,VWS V13.01,2013-03-21 02:48:00,
2013-03-20 21:53:00,11.2,6.0,30.34,NW,304,3.0,9.0,79,0.00,,---,0.00,VWS V13.01,2013-03-21 02:53:00,
2013-03-20 21:58:00,11.2,6.0,30.34,NW,324,11.0,11.0,79,0.00,,---,0.00,VWS V13.01,2013-03-21 02:58:00,
2013-03-20 22:03:00,11.2,6.2,30.34,NW,313,3.0,10.0,80,0.00,,---,0.00,VWS V13.01,2013-03-21 03:03:00,
2013-03-20 22:09:00,11.1,6.2,30.34,NW,308,2.0,10.0,80,0.00,,---,0.00,VWS V13.01,2013-03-21 03:09:00,
2013-03-20 22:14:00,11.1,6.2,30.33,NW,325,3.0,10.0,80,0.00,,---,0.00,VWS V13.01,2013-03-21 03:14:00,
2013-03-20 22:19:00,11.1,6.2,30.33,NW,306,6.0,6.0,80,0.00,,---,0.00,VWS V13.01,2013-03-21 03:19:00,
2013-03-20 22:24:00,11.1,6.2,30.33,WNW,303,3.0,8.0,80,0.00,,---,0.00,VWS V13.01,2013-03-21 03:24:00,
2013-03-20 22:29:00,11.0,6.1,30.33,NW,320,3.0,10.0,80,0.00,,---,0.00,VWS V13.01,2013-03-21 03:29:00,
2013-03-20 22:34:00,11.0,6.3,30.33,North,360,4.0,7.0,81,0.00,,---,0.00,VWS V13.01,2013-03-21 03:34:00,
2013-03-20 22:40:00,11.0,6.3,30.33,NW,325,3.0,7.0,81,0.00,,---,0.00,VWS V13.01,2013-03-21 03:40:00,
2013-03-20 22:45:00,11.0,6.3,30.32,NW,325,2.0,9.0,81,0.00,,---,0.00,VWS V13.01,2013-03-21 03:45:00,
2013-03-20 22:50:00,10.9,6.2,30.32,NW,325,3.0,9.0,81,0.00,,---,0.00,VWS V13.01,2013-03-21 03:50:00,
2013-03-20 22:55:00,10.9,6.2,30.32,NW,311,6.0,10.0,81,0.00,,---,0.00,VWS V13.01,2013-03-21 03:55:00,
2013-03-20 23:00:00,10.9,6.5,30.31,NW,310,3.0,10.0,82,0.00,,---,0.00,VWS V13.01,2013-03-21 04:00:00,
2013-03-20 23:01:00,10.9,6.5,30.31,NW,310,1.0,3.0,82,0.00,,---,0.00,VWS V13.01,2013-03-21 04:01:00,
2013-03-20 23:06:00,10.9,6.5,30.31,NNW,344,2.0,9.0,82,0.00,,---,0.00,VWS V13.01,2013-03-21 04:06:00,
2013-03-20 23:12:00,10.9,6.5,30.31,NNW,329,3.0,9.0,82,0.00,,---,0.00,VWS V13.01,2013-03-21 04:12:00,
2013-03-20 23:17:00,10.9,6.5,30.31,NW,319,2.0,7.0,82,0.00,,---,0.00,VWS V13.01,2013-03-21 04:17:00,
2013-03-20 23:22:00,10.9,6.5,30.31,NNW,338,9.0,9.0,82,0.00,,---,0.00,VWS V13.01,2013-03-21 04:22:00,
2013-03-20 23:27:00,10.9,6.5,30.31,NNW,348,1.0,10.0,82,0.00,,---,0.00,VWS V13.01,2013-03-21 04:27:00,
2013-03-20 23:32:00,10.9,6.8,30.31,NNW,329,2.0,3.0,83,0.00,,---,0.00,VWS V13.01,2013-03-21 04:32:00,
2013-03-20 23:37:00,10.8,6.7,30.31,North,355,4.0,11.0,83,0.00,,---,0.00,VWS V13.01,2013-03-21 04:37:00,
2013-03-20 23:42:00,10.8,6.7,30.31,North,355,5.0,11.0,83,0.00,,---,0.00,VWS V13.01,2013-03-21 04:42:00,
2013-03-20 23:47:00,10.8,6.7,30.32,NNW,344,2.0,6.0,83,0.00,,---,0.00,VWS V13.01,2013-03-21 04:47:00,
2013-03-20 23:53:00,10.8,8.9,30.32,NNW,329,2.0,6.0,92,0.00,,---,0.00,VWS V13.01,2013-03-21 04:53:00,
2013-03-20 23:58:00,10.8,8.9,30.32,NNW,341,8.0,10.0,92,0.00,,---,0.00,VWS V13.01,2013-03-21 04:58:00,